Regional Weather Roundup
Issued by NWS

Home | Current Version | Previous Version | Graphics & Text | Print | Product List | Glossary On
Versions: 1 2 3 4 5 6 7 8 9 10 11 12 13 14 15 16 17 18 19 20 21 22 23 24 25 26 27 28 29 30 31 32 33 34 35 36 37 38 39 40 41 42 43 44 45 46 47 48 49 50
000
ASUS43 KDTX 172310
RWRMI
MICHIGAN HOURLY REGIONAL WEATHER ROUNDUP
NATIONAL WEATHER SERVICE DETROIT/PONTIAC MI
600 PM EST SUN DEC 17 2017

NOTE: "FAIR" INDICATES FEW OR NO CLOUDS BELOW 12,000 FEET WITH NO
SIGNIFICANT WEATHER AND/OR OBSTRUCTION TO VISIBILITY.

MIZ047>049-052>055-059>063-066>070-074>076-081>083-180000-
SOUTHEAST LOWER MICHIGAN

CITY           SKY/WX    TMP DP  RH WIND       PRES   REMARKS
ADRIAN         CLOUDY    32  30  92 CALM      30.06S FOG
ALMA           CLOUDY    28  27  93 E7        30.04F FOG     WCI  21
ANN ARBOR      CLOUDY    32  30  92 E3        30.06R
BAD AXE        CLOUDY    27  23  84 SE3       30.10S
CARO           CLOUDY    28  24  86 E6        30.07F WCI  21
DETROIT CITY   CLOUDY    31  29  92 E3        30.08F
DETROIT        CLOUDY    36  31  82 E3        30.08S
FLINT          CLOUDY    30  27  88 SE6       30.06F WCI  24
GROSSE ILE     CLOUDY    33  31  92 CALM      30.06S FOG
HILLSDALE      CLOUDY    32  30  93 SE3       30.02S FOG
HOWELL         CLOUDY    32  31  96 SE7       30.04S FOG     WCI  25

CITY           SKY/WX    TMP DP  RH WIND       PRES   REMARKS
JACKSON        CLOUDY    33  29  85 E7        30.02F FOG     WCI  27
LAMBERTVILLE   CLOUDY    33  29  87 CALM      30.07R
LANSING        CLOUDY    32  30  92 E7        30.03F FOG     WCI  26
LAPEER         CLOUDY    28  25  89 SE3       30.07S
MASON          CLOUDY    33  29  85 SE6       30.03S FOG     WCI  28
MONROE         CLOUDY    32  30  92 CALM      30.07R FOG
MT. CLEMENS    CLOUDY    29  29  99 E8        30.07S WCI  21
PONTIAC        CLOUDY    30  29  96 SE7       30.04F FOG     WCI  23
PORT HOPE        N/A     29  24  82 SE8       30.09F WCI  21
PORT HURON     CLOUDY    27  21  80 E8        30.10F WCI  18
TRI CITIES     CLOUDY    28  25  88 E7        30.08S WCI  21
MIDLAND        CLOUDY    28  23  81 E6        30.07F WCI  22
TROY           CLOUDY    31  29  91 E3        30.09S
SAGINAW HB     CLOUDY    28  27  93 E5        30.08R WCI  23
$$
MIZ043>046-050>051-056>058-064>065-071>073-077>080-180000-
SOUTHWEST LOWER MICHIGAN

CITY           SKY/WX    TMP DP  RH WIND       PRES   REMARKS
BATTLE CREEK   CLOUDY    33  29  85 SE5       30.01F WCI  29
BENTON HARBOR  CLOUDY    37  30  75 SE6       29.99F WCI  32
BIG RAPIDS     CLOUDY    27  25  93 SE8       30.01F FOG     WCI  19
COLDWATER      CLOUDY    33  32  96 SE7       30.01F FOG     WCI  27
HOLLAND        CLOUDY    31  27  85 E7        30.00F WCI  24
GRAND RAPIDS   CLOUDY    30  28  92 E7        30.01F FOG     WCI  23
IONIA          CLOUDY    30  28  91 E5        30.02F FOG     WCI  25
KALAMAZOO      CLOUDY    33  28  81 CALM      30.01F
LUDINGTON      CLOUDY    29  26  89 SE5       30.02S FOG     WCI  24
MARSHALL       CLOUDY    32  31  96 SE6       30.01F FOG     WCI  26
MOUNT PLEASANT CLOUDY    29  24  81 E6        30.04F WCI  23
MUSKEGON       CLOUDY    31  26  82 E5        30.02S HAZE    WCI  26
SOUTH HAVEN    CLOUDY    35  29  81 E3        29.99F
$$
MIZ016>042-180000-
NORTHERN LOWER MICHIGAN

CITY           SKY/WX    TMP DP  RH WIND       PRES   REMARKS
ALPENA         CLOUDY    27  24  89 SE6       30.11F WCI  20
BEAVER ISLAND  CLOUDY    28  26  89 SE7       30.05S WCI  21
BELLAIRE       CLOUDY    28  26  93 CALM      30.05F
CADILLAC       CLOUDY    24  24  99 E7        30.00S FOG     WCI  16
CHARLEVOIX     CLOUDY    28  24  86 SE8       30.07F WCI  20
FRANKFORT      CLOUDY    32  28  84 E5        30.01F WCI  27
GAYLORD        CLOUDY    23  21  92 SE8       30.02F FOG     WCI  14
GRAYLING       CLOUDY    24  22  93 E9        30.04F FOG     WCI  15
HARBOR SPRINGS CLOUDY    25  22  87 E8        30.06F WCI  16
HOUGHTON LAKE  CLOUDY    24  21  88 E8        30.04S WCI  15
MANISTEE       CLOUDY    29  26  89 SE6       30.02F WCI  23
OSCODA         CLOUDY    29  21  72 SE6       30.10S WCI  23
PELLSTON       CLOUDY    25  21  85 SE7       30.07F WCI  17
ROGERS CITY    CLOUDY    26  24  89 SE6       30.10F WCI  20
TRAVERSE CITY  CLOUDY    28  24  85 SE6       30.02F WCI  22
$$
MIZ007>008-015-180000-
EASTERN UPPER MICHIGAN

CITY           SKY/WX    TMP DP  RH WIND       PRES   REMARKS
KINROSS        FLURRIES  14  12  92 E6        30.07F WCI   5
MACKINAC ISLAN CLOUDY    27  20  77 SE10      30.06F WCI  17
NEWBERRY       CLOUDY    17  16  97 E6        30.03F WCI   9
S. S. MARIE    CLOUDY    15   9  76 E7        30.08F WCI   5
MUNISING         N/A     26  24  92 S5        30.00F WCI  20
$$
MIZ004>006-011>014-085-180000-
CENTRAL UPPER MICHIGAN

CITY           SKY/WX    TMP DP  RH WIND       PRES   REMARKS
MANISTIQUE     CLOUDY    28  23  81 E9        30.02F WCI  19
ESCANABA       CLOUDY    30  27  88 E5        30.02F WCI  25
MENOMINEE      CLOUDY    31  27  85 CALM      30.01F
SAWYER-GWINN   FLURRIES  25  23  93 S7        29.97F WCI  17
$$
MIZ001>003-009>011-084-180000-
WESTERN UPPER MICHIGAN

CITY           SKY/WX    TMP DP  RH WIND       PRES   REMARKS
IRON MOUNTAIN  CLOUDY    26  23  88 CALM      29.97F
HOUGHTON       CLOUDY    25  20  81 S6        29.94F WCI  18
COPPER HARBOR    N/A     27  22  81 CALM      29.96F
IRONWOOD       CLOUDY    26  23  88 SW3       29.95F
$$

ABBREVIATIONS USED IN REMARKS
   TC - TEMPERATURE IN CELSIUS
  WCI - WIND CHILL INDEX
   HX - HEAT INDEX
  VSB - VISIBILITY





USA.gov is the U.S. government's official web portal to all federal, state and local government web resources and services.